Time,TemperatureF,DewpointF,PressureIn,WindDirection,WindDirectionDegrees,WindSpeedMPH,WindSpeedGustMPH,Humidity,HourlyPrecipIn,Conditions,Clouds,dailyrainin,SolarRadiationWatts/m^2,SoftwareType,DateUTC
2013-08-19 00:00:00,60.0,56.0,-100.00,NNE,22,1.0,-999.0,86,-99.99,,,-99.99,0.000000,,2013-08-19 04:00:00,
2013-08-19 00:42:00,60.0,56.0,-100.00,NNE,22,1.0,-999.0,86,-99.99,,,-99.99,0.000000,,2013-08-19 04:42:00,
2013-08-19 00:53:00,60.0,56.0,-100.00,NNE,22,1.0,-999.0,86,-99.99,,,-99.99,0.000000,,2013-08-19 04:53:00,
2013-08-19 01:00:00,59.0,55.0,-100.00,NNE,22,0.0,-999.0,87,-99.99,,,-99.99,0.000000,,2013-08-19 05:00:00,
2013-08-19 01:42:00,59.0,55.0,-100.00,NNE,22,0.0,-999.0,87,-99.99,,,-99.99,0.000000,,2013-08-19 05:42:00,
2013-08-19 01:52:00,59.0,55.0,-100.00,NNE,22,0.0,-999.0,87,-99.99,,,-99.99,0.000000,,2013-08-19 05:52:00,
2013-08-19 02:00:00,58.0,55.0,-100.00,NNW,337,0.0,-999.0,89,-99.99,,,-99.99,0.000000,,2013-08-19 06:00:00,
2013-08-19 02:42:00,58.0,55.0,-100.00,NNW,337,0.0,-999.0,89,-99.99,,,-99.99,0.000000,,2013-08-19 06:42:00,
2013-08-19 02:52:00,58.0,55.0,-100.00,NNW,337,0.0,-999.0,89,-99.99,,,-99.99,0.000000,,2013-08-19 06:52:00,
2013-08-19 03:00:00,58.0,55.0,-100.00,WNW,292,0.0,-999.0,89,-99.99,,,-99.99,0.000000,,2013-08-19 07:00:00,
2013-08-19 03:42:00,58.0,55.0,-100.00,WNW,292,0.0,-999.0,89,-99.99,,,-99.99,0.000000,,2013-08-19 07:42:00,
2013-08-19 03:52:00,58.0,55.0,-100.00,WNW,292,0.0,-999.0,89,-99.99,,,-99.99,0.000000,,2013-08-19 07:52:00,
2013-08-19 05:00:00,56.0,53.0,-100.00,NW,315,1.0,-999.0,90,-99.99,,,-99.99,0.000000,,2013-08-19 09:00:00,
2013-08-19 05:43:00,56.0,53.0,-100.00,NW,315,1.0,-999.0,90,-99.99,,,-99.99,0.000000,,2013-08-19 09:43:00,
2013-08-19 05:53:00,56.0,53.0,-100.00,NW,315,1.0,-999.0,90,-99.99,,,-99.99,0.000000,,2013-08-19 09:53:00,
2013-08-19 06:00:00,57.0,54.0,-100.00,North,0,1.0,-999.0,90,-99.99,,,-99.99,0.000000,,2013-08-19 10:00:00,
2013-08-19 06:43:00,57.0,54.0,-100.00,North,0,1.0,-999.0,90,-99.99,,,-99.99,0.000000,,2013-08-19 10:43:00,
2013-08-19 06:52:00,57.0,54.0,-100.00,North,0,1.0,-999.0,90,-99.99,,,-99.99,0.000000,,2013-08-19 10:52:00,
2013-08-19 08:00:00,58.0,55.0,-100.00,North,0,1.0,-999.0,89,-99.99,,,-99.99,37.119999,,2013-08-19 12:00:00,
2013-08-19 08:42:00,58.0,55.0,-100.00,North,0,1.0,-999.0,89,-99.99,,,-99.99,37.119999,,2013-08-19 12:42:00,
2013-08-19 08:52:00,58.0,55.0,-100.00,North,0,1.0,-999.0,89,-99.99,,,-99.99,37.119999,,2013-08-19 12:52:00,
2013-08-19 09:00:00,64.0,58.0,-100.00,NNE,22,1.0,-999.0,81,-99.99,,,-99.99,161.240005,,2013-08-19 13:00:00,
2013-08-19 09:42:00,64.0,58.0,-100.00,NNE,22,1.0,-999.0,81,-99.99,,,-99.99,161.240005,,2013-08-19 13:42:00,
2013-08-19 09:52:00,64.0,58.0,-100.00,NNE,22,1.0,-999.0,81,-99.99,,,-99.99,161.240005,,2013-08-19 13:52:00,
2013-08-19 10:00:00,69.0,58.0,-100.00,ENE,67,3.0,-999.0,69,-99.99,,,-99.99,295.799988,,2013-08-19 14:00:00,
2013-08-19 10:42:00,69.0,58.0,-100.00,ENE,67,3.0,-999.0,69,-99.99,,,-99.99,295.799988,,2013-08-19 14:42:00,
2013-08-19 10:52:00,69.0,58.0,-100.00,ENE,67,3.0,-999.0,69,-99.99,,,-99.99,295.799988,,2013-08-19 14:52:00,
2013-08-19 12:00:00,77.0,58.0,-100.00,South,180,3.0,-999.0,52,-99.99,,,-99.99,504.600006,,2013-08-19 16:00:00,
2013-08-19 12:47:00,77.0,58.0,-100.00,South,180,3.0,-999.0,52,-99.99,,,-99.99,504.600006,,2013-08-19 16:47:00,
2013-08-19 14:00:00,-999.0,-99.9,-100.00,SSE,157,7.0,-999.0,41,-99.99,,,-99.99,,,2013-08-19 18:00:00,
2013-08-19 14:50:00,-999.0,-99.9,-100.00,SSE,157,7.0,-999.0,41,-99.99,,,-99.99,,,2013-08-19 18:50:00,
2013-08-19 18:00:00,82.0,51.0,-100.00,ESE,112,5.0,-999.0,35,-99.99,,,-99.99,381.640015,,2013-08-19 22:00:00,
2013-08-19 18:44:00,82.0,51.0,-100.00,ESE,112,5.0,-999.0,35,-99.99,,,-99.99,381.640015,,2013-08-19 22:44:00,
2013-08-19 18:55:00,82.0,51.0,-100.00,ESE,112,5.0,-999.0,35,-99.99,,,-99.99,381.640015,,2013-08-19 22:55:00,
2013-08-19 20:00:00,79.0,55.0,-100.00,ESE,112,2.0,-999.0,43,-99.99,,,-99.99,85.839996,,2013-08-20 00:00:00,
2013-08-19 20:42:00,79.0,55.0,-100.00,ESE,112,2.0,-999.0,43,-99.99,,,-99.99,85.839996,,2013-08-20 00:42:00,
2013-08-19 20:52:00,79.0,55.0,-100.00,ESE,112,2.0,-999.0,43,-99.99,,,-99.99,85.839996,,2013-08-20 00:52:00,
2013-08-19 21:00:00,73.0,58.0,-100.00,NNE,22,0.0,-999.0,58,-99.99,,,-99.99,6.960000,,2013-08-20 01:00:00,
2013-08-19 21:42:00,73.0,58.0,-100.00,NNE,22,0.0,-999.0,58,-99.99,,,-99.99,6.960000,,2013-08-20 01:42:00,
2013-08-19 21:52:00,73.0,58.0,-100.00,NNE,22,0.0,-999.0,58,-99.99,,,-99.99,6.960000,,2013-08-20 01:52:00,
2013-08-19 23:00:00,66.0,59.0,-100.00,NNW,337,1.0,-999.0,77,-99.99,,,-99.99,0.000000,,2013-08-20 03:00:00,
2013-08-19 23:43:00,66.0,59.0,-100.00,NNW,337,1.0,-999.0,77,-99.99,,,-99.99,0.000000,,2013-08-20 03:43:00,
2013-08-19 23:54:00,66.0,59.0,-100.00,NNW,337,1.0,-999.0,77,-99.99,,,-99.99,0.000000,,2013-08-20 03:54:00,